N2855K FPPR-FGSL

Flight info

Callsign N2855K
Flight time 0h 53m
Altitude 5500
Route MBO
Aircraft BE36/L-SDE2E3FGHIRWXY/LB1

Departure

Time 2026-05-05 16:13
Airport Principe Airport (FPPR)

Arrival

Time 2026-05-05 17:07
Airport Malabo International Airport (FGSL)
Time Latitude Longitude Altitude Speed Heading
2026-05-05 16:07 1.66922 7.41071 591 ft 0 kts 83°
2026-05-05 16:12 1.66902 7.41101 591 ft 9 kts 177°
2026-05-05 16:12 1.65976 7.41106 720 ft 106 kts 179°
2026-05-05 16:13 1.64943 7.42437 1812 ft 124 kts 55°
2026-05-05 16:13 1.65686 7.42919 1953 ft 134 kts 16°
2026-05-05 16:13 1.66960 7.42869 2137 ft 148 kts 353°
2026-05-05 16:14 1.68766 7.42870 2434 ft 161 kts 11°
2026-05-05 16:14 1.70753 7.43911 2888 ft 163 kts 31°
2026-05-05 16:15 1.72663 7.45105 3345 ft 161 kts 31°
2026-05-05 16:15 1.74545 7.46271 3784 ft 158 kts 31°
2026-05-05 16:16 1.76408 7.47423 4228 ft 157 kts 31°
2026-05-05 16:16 1.78252 7.48565 4673 ft 155 kts 31°
2026-05-05 16:17 1.80078 7.49695 5118 ft 154 kts 31°
2026-05-05 16:17 1.80985 7.50256 5343 ft 153 kts 31°
2026-05-05 16:18 1.82857 7.51416 5502 ft 167 kts 31°
2026-05-05 16:18 1.83861 7.52036 5511 ft 172 kts 31°
2026-05-05 16:18 1.85929 7.53316 5509 ft 178 kts 31°
2026-05-05 16:19 1.86987 7.53971 5509 ft 180 kts 31°
2026-05-05 16:19 1.88054 7.54632 5509 ft 181 kts 31°
2026-05-05 16:19 1.90199 7.55959 5510 ft 182 kts 31°
2026-05-05 16:20 1.92335 7.57281 5508 ft 180 kts 31°
2026-05-05 16:20 1.94452 7.58592 5507 ft 179 kts 31°
2026-05-05 16:21 1.96564 7.59900 5506 ft 179 kts 31°
2026-05-05 16:22 1.99729 7.61859 5506 ft 179 kts 31°
2026-05-05 16:22 2.01839 7.63166 5506 ft 179 kts 31°
2026-05-05 16:23 2.03950 7.64471 5506 ft 179 kts 31°
2026-05-05 16:23 2.05004 7.65125 5506 ft 179 kts 31°
2026-05-05 16:23 2.07115 7.66431 5506 ft 179 kts 31°
2026-05-05 16:24 2.08169 7.67085 5506 ft 179 kts 31°
2026-05-05 16:24 2.09226 7.67738 5506 ft 179 kts 31°
2026-05-05 16:24 2.11334 7.69044 5506 ft 179 kts 31°
2026-05-05 16:25 2.12390 7.69698 5506 ft 179 kts 31°
2026-05-05 16:25 2.14501 7.71005 5506 ft 179 kts 31°
2026-05-05 16:25 2.15557 7.71659 5506 ft 179 kts 31°
2026-05-05 16:26 2.17667 7.72965 5506 ft 179 kts 31°
2026-05-05 16:26 2.19777 7.74272 5506 ft 179 kts 31°
2026-05-05 16:27 2.20832 7.74926 5506 ft 179 kts 31°
2026-05-05 16:27 2.21887 7.75579 5506 ft 179 kts 31°
2026-05-05 16:27 2.22943 7.76233 5506 ft 179 kts 31°
2026-05-05 16:27 2.23996 7.76886 5506 ft 179 kts 31°
2026-05-05 16:28 2.25054 7.77540 5506 ft 179 kts 31°
2026-05-05 16:28 2.26110 7.78194 5506 ft 179 kts 31°
2026-05-05 16:28 2.27165 7.78848 5506 ft 179 kts 31°
2026-05-05 16:28 2.28221 7.79501 5506 ft 179 kts 31°
2026-05-05 16:29 2.29276 7.80156 5506 ft 179 kts 31°
2026-05-05 16:29 2.30330 7.80808 5506 ft 179 kts 31°
2026-05-05 16:29 2.31387 7.81462 5506 ft 179 kts 31°
2026-05-05 16:29 2.32441 7.82116 5507 ft 179 kts 31°
2026-05-05 16:30 2.33495 7.82768 5507 ft 179 kts 31°
2026-05-05 16:30 2.34553 7.83424 5507 ft 179 kts 31°
2026-05-05 16:30 2.35607 7.84077 5506 ft 179 kts 31°
2026-05-05 16:30 2.36664 7.84731 5507 ft 179 kts 31°
2026-05-05 16:31 2.37719 7.85386 5507 ft 179 kts 31°
2026-05-05 16:31 2.38775 7.86039 5507 ft 179 kts 31°
2026-05-05 16:31 2.39831 7.86693 5507 ft 179 kts 31°
2026-05-05 16:31 2.40886 7.87347 5507 ft 179 kts 31°
2026-05-05 16:32 2.41943 7.88001 5507 ft 179 kts 31°
2026-05-05 16:32 2.42998 7.88655 5507 ft 179 kts 31°
2026-05-05 16:32 2.44054 7.89309 5507 ft 179 kts 31°
2026-05-05 16:32 2.45110 7.89963 5507 ft 179 kts 31°
2026-05-05 16:33 2.46166 7.90618 5507 ft 179 kts 31°
2026-05-05 16:33 2.47222 7.91272 5507 ft 179 kts 31°
2026-05-05 16:33 2.48279 7.91927 5507 ft 179 kts 31°
2026-05-05 16:33 2.49333 7.92581 5507 ft 179 kts 31°
2026-05-05 16:34 2.50389 7.93234 5507 ft 179 kts 31°
2026-05-05 16:34 2.51444 7.93889 5507 ft 179 kts 31°
2026-05-05 16:34 2.52499 7.94542 5507 ft 179 kts 31°
2026-05-05 16:34 2.53557 7.95197 5507 ft 179 kts 31°
2026-05-05 16:35 2.54613 7.95852 5507 ft 179 kts 31°
2026-05-05 16:35 2.55670 7.96506 5507 ft 179 kts 31°
2026-05-05 16:35 2.56725 7.97160 5507 ft 179 kts 31°
2026-05-05 16:35 2.57781 7.97815 5507 ft 179 kts 31°
2026-05-05 16:36 2.58837 7.98469 5507 ft 179 kts 31°
2026-05-05 16:36 2.59893 7.99124 5507 ft 179 kts 31°
2026-05-05 16:36 2.60948 7.99777 5507 ft 179 kts 31°
2026-05-05 16:36 2.62005 8.00432 5507 ft 179 kts 31°
2026-05-05 16:37 2.63061 8.01087 5507 ft 179 kts 31°
2026-05-05 16:37 2.64117 8.01741 5507 ft 179 kts 31°
2026-05-05 16:37 2.65173 8.02396 5507 ft 179 kts 31°
2026-05-05 16:37 2.66230 8.03050 5507 ft 179 kts 31°
2026-05-05 16:38 2.67286 8.03705 5507 ft 179 kts 31°
2026-05-05 16:38 2.68339 8.04359 5507 ft 179 kts 31°
2026-05-05 16:38 2.69398 8.05014 5507 ft 179 kts 31°
2026-05-05 16:38 2.70454 8.05669 5507 ft 179 kts 31°
2026-05-05 16:39 2.71510 8.06324 5507 ft 179 kts 31°
2026-05-05 16:39 2.72565 8.06977 5507 ft 179 kts 31°
2026-05-05 16:39 2.73623 8.07634 5507 ft 179 kts 31°
2026-05-05 16:39 2.74680 8.08288 5507 ft 179 kts 31°
2026-05-05 16:40 2.75736 8.08943 5507 ft 179 kts 31°
2026-05-05 16:40 2.76790 8.09596 5507 ft 179 kts 31°
2026-05-05 16:40 2.77848 8.10252 5507 ft 179 kts 31°
2026-05-05 16:40 2.78904 8.10907 5507 ft 179 kts 31°
2026-05-05 16:41 2.79961 8.11562 5507 ft 179 kts 31°
2026-05-05 16:41 2.81017 8.12217 5507 ft 179 kts 31°
2026-05-05 16:41 2.82072 8.12872 5507 ft 179 kts 31°
2026-05-05 16:41 2.83131 8.13527 5507 ft 179 kts 31°
2026-05-05 16:42 2.84187 8.14183 5507 ft 179 kts 31°
2026-05-05 16:42 2.85244 8.14838 5507 ft 179 kts 31°
2026-05-05 16:42 2.86298 8.15491 5507 ft 179 kts 31°
2026-05-05 16:42 2.87355 8.16147 5507 ft 179 kts 31°
2026-05-05 16:43 2.88412 8.16802 5507 ft 179 kts 31°
2026-05-05 16:43 2.89469 8.17457 5507 ft 179 kts 31°
2026-05-05 16:43 2.90524 8.18112 5508 ft 179 kts 31°
2026-05-05 16:43 2.91582 8.18767 5508 ft 179 kts 31°
2026-05-05 16:44 2.92637 8.19422 5508 ft 179 kts 31°
2026-05-05 16:44 2.93693 8.20077 5508 ft 179 kts 31°
2026-05-05 16:44 2.94748 8.20731 5507 ft 179 kts 31°
2026-05-05 16:44 2.95803 8.21385 5508 ft 179 kts 31°
2026-05-05 16:45 2.96861 8.22041 5507 ft 179 kts 31°
2026-05-05 16:45 2.97916 8.22696 5508 ft 179 kts 31°
2026-05-05 16:45 2.98972 8.23351 5508 ft 179 kts 31°
2026-05-05 16:45 3.00029 8.24006 5508 ft 179 kts 31°
2026-05-05 16:46 3.01084 8.24661 5508 ft 179 kts 31°
2026-05-05 16:46 3.02140 8.25315 5508 ft 179 kts 31°
2026-05-05 16:46 3.03196 8.25971 5508 ft 179 kts 31°
2026-05-05 16:46 3.04253 8.26626 5508 ft 179 kts 31°
2026-05-05 16:47 3.05308 8.27280 5508 ft 179 kts 31°
2026-05-05 16:47 3.06364 8.27936 5508 ft 179 kts 31°
2026-05-05 16:47 3.07417 8.28588 5508 ft 179 kts 31°
2026-05-05 16:47 3.08495 8.29211 5508 ft 179 kts 28°
2026-05-05 16:48 3.09593 8.29789 5507 ft 179 kts 25°
2026-05-05 16:48 3.10719 8.30311 5507 ft 179 kts 24°
2026-05-05 16:48 3.11847 8.30831 5507 ft 179 kts 24°
2026-05-05 16:48 3.12973 8.31350 5507 ft 179 kts 24°
2026-05-05 16:49 3.14098 8.31869 5507 ft 179 kts 24°
2026-05-05 16:49 3.15228 8.32389 5507 ft 179 kts 24°
2026-05-05 16:49 3.16355 8.32909 5507 ft 179 kts 24°
2026-05-05 16:49 3.17479 8.33428 5507 ft 179 kts 24°
2026-05-05 16:50 3.18609 8.33949 5508 ft 179 kts 24°
2026-05-05 16:50 3.19737 8.34469 5507 ft 179 kts 24°
2026-05-05 16:50 3.20864 8.34989 5508 ft 179 kts 24°
2026-05-05 16:50 3.21988 8.35508 5508 ft 179 kts 24°
2026-05-05 16:51 3.23118 8.36029 5508 ft 179 kts 24°
2026-05-05 16:51 3.24246 8.36550 5508 ft 179 kts 24°
2026-05-05 16:51 3.25373 8.37070 5508 ft 179 kts 24°
2026-05-05 16:51 3.26498 8.37589 5508 ft 179 kts 24°
2026-05-05 16:52 3.27626 8.38111 5507 ft 179 kts 24°
2026-05-05 16:52 3.28753 8.38632 5508 ft 179 kts 24°
2026-05-05 16:52 3.29878 8.39157 5508 ft 179 kts 25°
2026-05-05 16:52 3.30997 8.39697 5508 ft 178 kts 25°
2026-05-05 16:53 3.32104 8.40233 5507 ft 177 kts 25°
2026-05-05 16:53 3.33213 8.40768 5506 ft 178 kts 25°
2026-05-05 16:53 3.34327 8.41306 5507 ft 178 kts 25°
2026-05-05 16:53 3.35444 8.41845 5511 ft 179 kts 25°
2026-05-05 16:54 3.36565 8.42386 5503 ft 179 kts 25°
2026-05-05 16:54 3.37682 8.42927 5503 ft 179 kts 25°
2026-05-05 16:54 3.38799 8.43468 5504 ft 179 kts 25°
2026-05-05 16:54 3.39916 8.44007 5502 ft 179 kts 25°
2026-05-05 16:55 3.41030 8.44547 5502 ft 178 kts 25°
2026-05-05 16:55 3.42144 8.45087 5503 ft 178 kts 25°
2026-05-05 16:55 3.43259 8.45627 5503 ft 179 kts 25°
2026-05-05 16:55 3.44375 8.46168 5503 ft 179 kts 25°
2026-05-05 16:56 3.45497 8.46710 5495 ft 180 kts 25°
2026-05-05 16:56 3.46636 8.47262 5379 ft 185 kts 25°
2026-05-05 16:56 3.47798 8.47824 5257 ft 185 kts 25°
2026-05-05 16:56 3.48938 8.48378 5133 ft 181 kts 25°
2026-05-05 16:57 3.50066 8.48925 5007 ft 180 kts 25°
2026-05-05 16:57 3.51186 8.49468 4881 ft 179 kts 25°
2026-05-05 16:57 3.52303 8.50009 4758 ft 178 kts 25°
2026-05-05 16:57 3.53416 8.50549 4627 ft 178 kts 25°
2026-05-05 16:58 3.54529 8.51088 4505 ft 178 kts 25°
2026-05-05 16:58 3.55640 8.51626 4378 ft 178 kts 25°
2026-05-05 16:58 3.56751 8.52165 4253 ft 178 kts 25°
2026-05-05 16:58 3.57861 8.52703 4134 ft 178 kts 25°
2026-05-05 16:59 3.58971 8.53241 4006 ft 178 kts 25°
2026-05-05 16:59 3.60079 8.53779 3881 ft 178 kts 25°
2026-05-05 16:59 3.61191 8.54319 3761 ft 178 kts 25°
2026-05-05 16:59 3.62301 8.54858 3632 ft 178 kts 25°
2026-05-05 17:00 3.63410 8.55396 3509 ft 178 kts 25°
2026-05-05 17:00 3.64519 8.55936 3384 ft 178 kts 25°
2026-05-05 17:00 3.65630 8.56475 3258 ft 178 kts 25°
2026-05-05 17:00 3.66739 8.57013 3133 ft 178 kts 25°
2026-05-05 17:01 3.67851 8.57554 2945 ft 179 kts 25°
2026-05-05 17:01 3.68914 8.58122 2674 ft 170 kts 33°
2026-05-05 17:01 3.69820 8.58845 2396 ft 165 kts 39°
2026-05-05 17:01 3.70692 8.59571 2120 ft 162 kts 39°
2026-05-05 17:02 3.71551 8.60289 1842 ft 161 kts 39°
2026-05-05 17:02 3.72409 8.61006 1565 ft 160 kts 39°
2026-05-05 17:02 3.73262 8.61718 1290 ft 160 kts 39°
2026-05-05 17:02 3.74123 8.62436 1106 ft 162 kts 39°
2026-05-05 17:03 3.74991 8.63157 1106 ft 163 kts 39°
2026-05-05 17:03 3.75862 8.63884 1107 ft 164 kts 39°
2026-05-05 17:03 3.76738 8.64617 1108 ft 164 kts 39°
2026-05-05 17:03 3.77612 8.65349 1108 ft 164 kts 39°
2026-05-05 17:04 3.78484 8.66079 1108 ft 161 kts 39°
2026-05-05 17:04 3.79318 8.66780 1104 ft 154 kts 40°
2026-05-05 17:04 3.80094 8.67505 1099 ft 151 kts 46°
2026-05-05 17:04 3.80442 8.68454 1094 ft 149 kts 97°
2026-05-05 17:05 3.80018 8.69394 1000 ft 154 kts 124°
2026-05-05 17:05 3.79433 8.70225 1057 ft 137 kts 126°
2026-05-05 17:05 3.78909 8.70960 998 ft 122 kts 128°
2026-05-05 17:05 3.78387 8.71599 878 ft 120 kts 132°
2026-05-05 17:06 3.77770 8.72102 690 ft 106 kts 160°
2026-05-05 17:06 3.77083 8.72089 392 ft 95 kts 200°
2026-05-05 17:06 3.76522 8.71759 103 ft 92 kts 222°
2026-05-05 17:06 3.76090 8.71372 54 ft 70 kts 223°
2026-05-05 17:07 3.75851 8.71161 57 ft 30 kts 220°
2026-05-05 17:07 3.75723 8.71049 56 ft 18 kts 221°
2026-05-05 17:07 3.75625 8.71015 62 ft 14 kts 157°
2026-05-05 17:07 3.75556 8.71078 61 ft 13 kts 150°
2026-05-05 17:08 3.75478 8.71063 59 ft 11 kts 223°
2026-05-05 17:08 3.75423 8.71013 58 ft 11 kts 220°
2026-05-05 17:08 3.75357 8.70955 63 ft 15 kts 221°
2026-05-05 17:08 3.75273 8.70882 65 ft 17 kts 221°
2026-05-05 17:09 3.75178 8.70796 66 ft 19 kts 220°
2026-05-05 17:09 3.75084 8.70791 65 ft 10 kts 134°
2026-05-05 17:09 3.75073 8.70803 67 ft 0 kts 135°